sat.trackr.live / text

‹ back to catalog

STARLINK-34928

NORAD 65195 · 2025-175X

PAYLOAD ACTIVE UNKNOWN

§ Identity

Operator
Country
US
Launch date
2025-08-14
Launch site
AFWTR
Launch vehicle
Mass (kg)
RCS (m²)

Purposes: comms

External: N2YO · Heavens-Above · Gunter

§ Orbital elements

Epoch: 2026-05-25T02:38:09.930624Z

Period
95.64 min
Inclination
97.4516°
Eccentricity
0.0002631
Mean motion
15.05653929 rev/d
Perigee alt
547.7 km
Apogee alt
551.3 km
Semi-major
6,927.6 km
B*
4.5775e-4
RAAN
17.6717°
Arg perigee
85.7354°
Mean anomaly
274.4174°
Rev number
4,414

§ Raw data

STARLINK-349281 65195U 25175X   26145.10983716  .00006553  00000+0  45775-3 0  99982 65195  97.4516  17.6717 0002631  85.7354 274.4174 15.05653929 44140

JSON: /api/v1/satellites/65195 · /tle

For live sub-satellite position, see the globe view (requires WebGL).

§ Visibility from observer

Set your observer location to see the next 7 days of passes ≥ 10°. The values pass through the URL so the page stays shareable.

No JS? Fill the form by hand. The geolocation button needs JavaScript.